Вернуться в каталог

CZ-6A DEB

АктивенSSO
NORAD 56263·DEBRIS·🇨🇳 China

Запущен Nov 11, 2022 с Taiyuan Satellite Launch Center

Loading…

Ближайшие Пролёты (ближайшие 24 часа)

TLE

СвежийSource: Space-Track

Эпоха: Sep 14, 2026, 14:19 UTC

1 56263U 22151ACF 26257.59658982  .00001434  00000-0  32305-3 0  9995
2 56263  98.4903 301.3492 0116687 358.8477   1.2432 14.53921921184563

Отслеживайте CZ-6A DEB в реальном времени с AllMySat

Download on the App Store